Location: S�tio Afonso Gruber
(26.1760°S, 49.5250°W)
Time: 12:02:22
(UTC+00:00)

Cosmos 1844 Rocket - Pass Details

Date: 02 October 2020
Orbit: 823 x 846 km, 71.0° (Epoch: 27 October)

Event Time Altitude Azimuth Distance (km) Brightness Sun altitude
Rises 07:54:41 0° 347° (NNW) 3,388 5.6 -14.5°
Reaches altitude 10° 07:57:07 10° 348° (NNW) 2,459 4.9 -13.9°
Maximum altitude 08:02:45 77° 73° (ENE) 873 2.9 -12.7°
Drops below altitude 10° 08:08:27 10° 158° (SSE) 2,477 5.6 -11.4°
Sets 08:10:54 0° 159° (SSE) 3,415 6.3 -10.9°
